Time,TemperatureF,DewpointF,PressureIn,WindDirection,WindDirectionDegrees,WindSpeedMPH,WindSpeedGustMPH,Humidity,HourlyPrecipIn,Conditions,Clouds,dailyrainin,SoftwareType,DateUTC
2013-02-10 00:01:00,8.0,2.0,30.44,South,181,0.0,0.0,76,0.00,,,0.00,,2013-02-10 05:01:00,
2013-02-10 00:11:00,8.0,2.0,30.44,South,181,0.0,0.0,76,0.00,,,0.00,,2013-02-10 05:11:00,
2013-02-10 00:23:00,7.0,2.0,30.45,ESE,122,0.0,0.0,79,0.00,,,0.00,,2013-02-10 05:23:00,
2013-02-10 00:32:00,7.0,2.0,30.45,ESE,109,0.0,0.0,79,0.00,,,0.00,,2013-02-10 05:32:00,
2013-02-10 00:42:00,7.0,2.0,30.45,ESE,109,0.0,0.0,79,0.00,,,0.00,,2013-02-10 05:42:00,
2013-02-10 00:52:00,7.0,2.0,30.45,WSW,244,0.0,0.0,79,0.00,,,0.00,,2013-02-10 05:52:00,
2013-02-10 01:02:00,7.0,1.0,30.45,SE,141,0.0,0.0,77,0.00,,,0.00,,2013-02-10 06:02:00,
2013-02-10 01:11:00,7.0,1.0,30.45,SE,141,0.0,0.0,77,0.00,,,0.00,,2013-02-10 06:11:00,
2013-02-10 01:21:00,7.0,2.0,30.45,South,173,0.0,0.0,78,0.00,,,0.00,,2013-02-10 06:21:00,
2013-02-10 01:32:00,7.0,1.0,30.46,WSW,253,0.0,0.0,76,0.00,,,0.00,,2013-02-10 06:32:00,
2013-02-10 01:42:00,7.0,1.0,30.46,WSW,253,0.0,0.0,76,0.00,,,0.00,,2013-02-10 06:42:00,
2013-02-10 01:52:00,7.0,0.0,30.46,SW,226,0.0,0.0,74,0.00,,,0.00,,2013-02-10 06:52:00,
2013-02-10 02:01:00,6.0,0.0,30.47,SSE,166,0.0,0.0,77,0.00,,,0.00,,2013-02-10 07:01:00,
2013-02-10 02:11:00,6.0,0.0,30.47,SSE,166,0.0,0.0,77,0.00,,,0.00,,2013-02-10 07:11:00,
2013-02-10 02:21:00,5.0,0.0,30.47,ENE,72,0.0,0.0,80,0.00,,,0.00,,2013-02-10 07:21:00,
2013-02-10 02:32:00,4.0,-1.0,30.47,ENE,75,0.0,0.0,81,0.00,,,0.00,,2013-02-10 07:32:00,
2013-02-10 02:42:00,4.0,-1.0,30.47,ENE,75,0.0,0.0,81,0.00,,,0.00,,2013-02-10 07:42:00,
2013-02-10 02:52:00,4.0,-1.0,30.48,South,184,0.0,0.0,81,0.00,,,0.00,,2013-02-10 07:52:00,
2013-02-10 03:01:00,3.0,-1.0,30.48,ENE,77,0.0,0.0,82,0.00,,,0.00,,2013-02-10 08:01:00,
2013-02-10 03:11:00,3.0,-1.0,30.48,ENE,77,0.0,0.0,82,0.00,,,0.00,,2013-02-10 08:11:00,
2013-02-10 03:21:00,3.0,-1.0,30.48,SE,141,0.0,0.0,82,0.00,,,0.00,,2013-02-10 08:21:00,
2013-02-10 03:32:00,3.0,-1.0,30.48,South,174,0.0,0.0,82,0.00,,,0.00,,2013-02-10 08:32:00,
2013-02-10 03:43:00,3.0,-1.0,30.48,South,174,0.0,0.0,82,0.00,,,0.00,,2013-02-10 08:43:00,
2013-02-10 03:52:00,3.0,-1.0,30.48,SE,132,0.0,0.0,82,0.00,,,0.00,,2013-02-10 08:52:00,
2013-02-10 04:02:00,2.0,-2.0,30.49,SE,132,0.0,0.0,83,0.00,,,0.00,,2013-02-10 09:02:00,
2013-02-10 04:11:00,2.0,-2.0,30.49,SE,132,0.0,0.0,83,0.00,,,0.00,,2013-02-10 09:11:00,
2013-02-10 04:21:00,1.0,-3.0,30.50,SE,132,0.0,0.0,83,0.00,,,0.00,,2013-02-10 09:21:00,
2013-02-10 04:32:00,0.0,-4.0,30.51,SSE,153,0.0,0.0,83,0.00,,,0.00,,2013-02-10 09:32:00,
2013-02-10 04:52:00,0.0,-4.0,30.52,East,81,0.0,0.0,83,0.00,,,0.00,,2013-02-10 09:52:00,
2013-02-10 05:01:00,0.0,-4.0,30.53,East,81,0.0,0.0,84,0.00,,,0.00,,2013-02-10 10:01:00,
2013-02-10 05:11:00,0.0,-4.0,30.53,East,81,0.0,0.0,84,0.00,,,0.00,,2013-02-10 10:11:00,
2013-02-10 05:21:00,0.0,-4.0,30.53,East,81,0.0,0.0,84,0.00,,,0.00,,2013-02-10 10:21:00,
2013-02-10 05:31:00,-1.0,-5.0,30.54,SE,131,0.0,0.0,84,0.00,,,0.00,,2013-02-10 10:31:00,
2013-02-10 05:42:00,-1.0,-5.0,30.54,SE,131,0.0,0.0,84,0.00,,,0.00,,2013-02-10 10:42:00,
2013-02-10 05:52:00,-2.0,-5.0,30.55,East,93,0.0,0.0,85,0.00,,,0.00,,2013-02-10 10:52:00,
2013-02-10 06:01:00,-2.0,-5.0,30.55,SW,226,0.0,0.0,85,0.00,,,0.00,,2013-02-10 11:01:00,
2013-02-10 06:11:00,-2.0,-5.0,30.55,SW,226,0.0,0.0,85,0.00,,,0.00,,2013-02-10 11:11:00,
2013-02-10 06:22:00,-3.0,-7.0,30.56,NE,53,0.0,0.0,84,0.00,,,0.00,,2013-02-10 11:22:00,
2013-02-10 06:32:00,-3.0,-7.0,30.56,NE,51,0.0,0.0,84,0.00,,,0.00,,2013-02-10 11:32:00,
2013-02-10 06:42:00,-3.0,-7.0,30.56,NE,51,0.0,0.0,84,0.00,,,0.00,,2013-02-10 11:42:00,
2013-02-10 06:52:00,-3.0,-7.0,30.58,NE,53,0.0,0.0,84,0.00,,,0.00,,2013-02-10 11:52:00,
2013-02-10 07:02:00,-4.0,-8.0,30.59,ENE,64,0.0,0.0,83,0.00,,,0.00,,2013-02-10 12:02:00,
2013-02-10 07:12:00,-4.0,-8.0,30.59,ENE,64,0.0,0.0,83,0.00,,,0.00,,2013-02-10 12:12:00,
2013-02-10 07:21:00,-4.0,-8.0,30.59,ENE,63,0.0,0.0,84,0.00,,,0.00,,2013-02-10 12:21:00,
2013-02-10 07:32:00,-4.0,-8.0,30.60,ENE,63,0.0,0.0,84,0.00,,,0.00,,2013-02-10 12:32:00,
2013-02-10 07:42:00,-4.0,-8.0,30.60,ENE,63,0.0,0.0,84,0.00,,,0.00,,2013-02-10 12:42:00,
2013-02-10 07:52:00,-4.0,-8.0,30.61,SE,132,0.0,0.0,84,0.00,,,0.00,,2013-02-10 12:52:00,
2013-02-10 08:02:00,-3.0,-6.0,30.62,SSE,162,0.0,0.0,85,0.00,,,0.00,,2013-02-10 13:02:00,
2013-02-10 08:11:00,-3.0,-6.0,30.62,SSE,162,0.0,0.0,85,0.00,,,0.00,,2013-02-10 13:11:00,
2013-02-10 08:21:00,-1.0,-5.0,30.63,SE,132,0.0,0.0,84,0.00,,,0.00,,2013-02-10 13:21:00,
2013-02-10 08:31:00,0.0,-4.0,30.63,SE,131,0.0,0.0,84,0.00,,,0.00,,2013-02-10 13:31:00,
2013-02-10 08:41:00,0.0,-4.0,30.63,SE,131,0.0,0.0,84,0.00,,,0.00,,2013-02-10 13:41:00,
2013-02-10 08:52:00,3.0,-1.0,30.63,SE,131,0.0,0.0,82,0.00,,,0.00,,2013-02-10 13:52:00,
2013-02-10 09:02:00,7.0,2.0,30.64,SE,131,0.0,0.0,81,0.00,,,0.00,,2013-02-10 14:02:00,
2013-02-10 09:11:00,7.0,2.0,30.64,SE,131,0.0,0.0,81,0.00,,,0.00,,2013-02-10 14:11:00,
2013-02-10 09:22:00,11.0,6.0,30.65,SE,131,0.0,0.0,78,0.00,,,0.00,,2013-02-10 14:22:00,
2013-02-10 09:32:00,14.0,7.0,30.65,SSE,160,0.0,0.0,72,0.00,,,0.00,,2013-02-10 14:32:00,
2013-02-10 09:42:00,14.0,7.0,30.65,SSE,160,0.0,0.0,72,0.00,,,0.00,,2013-02-10 14:42:00,
2013-02-10 09:52:00,16.0,7.0,30.65,SSE,166,0.0,0.0,68,0.00,,,0.00,,2013-02-10 14:52:00,
2013-02-10 10:02:00,17.0,6.0,30.65,SSW,204,0.0,0.0,60,0.00,,,0.00,,2013-02-10 15:02:00,
2013-02-10 10:11:00,17.0,6.0,30.65,SSW,204,0.0,0.0,60,0.00,,,0.00,,2013-02-10 15:11:00,
2013-02-10 10:22:00,21.0,11.0,30.64,SE,127,0.0,0.0,66,0.00,,,0.00,,2013-02-10 15:22:00,
2013-02-10 10:32:00,20.0,4.0,30.65,WSW,256,0.0,0.0,48,0.00,,,0.00,,2013-02-10 15:32:00,
2013-02-10 10:42:00,20.0,4.0,30.65,WSW,256,0.0,0.0,48,0.00,,,0.00,,2013-02-10 15:42:00,
2013-02-10 10:52:00,20.0,5.0,30.65,West,262,0.0,0.0,51,0.00,,,0.00,,2013-02-10 15:52:00,
2013-02-10 11:02:00,22.0,5.0,30.65,West,281,0.0,0.0,48,0.00,,,0.00,,2013-02-10 16:02:00,
2013-02-10 11:12:00,24.0,9.0,30.65,South,177,0.0,0.0,51,0.00,,,0.00,,2013-02-10 16:12:00,
2013-02-10 11:22:00,24.0,9.0,30.65,South,177,0.0,0.0,51,0.00,,,0.00,,2013-02-10 16:22:00,
2013-02-10 11:32:00,24.0,4.0,30.64,West,264,0.0,0.0,42,0.00,,,0.00,,2013-02-10 16:32:00,
2013-02-10 11:42:00,24.0,4.0,30.64,West,264,0.0,0.0,42,0.00,,,0.00,,2013-02-10 16:42:00,
2013-02-10 11:52:00,24.0,4.0,30.64,West,264,0.0,0.0,42,0.00,,,0.00,,2013-02-10 16:52:00,
2013-02-10 12:02:00,27.0,5.0,30.63,SSE,155,0.0,0.0,38,0.00,,,0.00,,2013-02-10 17:02:00,
2013-02-10 12:11:00,27.0,5.0,30.63,SSE,155,0.0,0.0,38,0.00,,,0.00,,2013-02-10 17:11:00,
2013-02-10 12:22:00,27.0,5.0,30.63,SSE,155,0.0,0.0,38,0.00,,,0.00,,2013-02-10 17:22:00,
2013-02-10 12:32:00,27.0,5.0,30.63,SSE,155,0.0,0.0,38,0.00,,,0.00,,2013-02-10 17:32:00,
2013-02-10 12:42:00,29.0,8.0,30.60,ENE,71,0.0,0.0,40,0.00,,,0.00,,2013-02-10 17:42:00,
2013-02-10 12:52:00,29.0,8.0,30.60,ENE,71,0.0,0.0,40,0.00,,,0.00,,2013-02-10 17:52:00,
2013-02-10 13:02:00,30.0,10.0,30.59,ENE,65,0.0,0.0,42,0.00,,,0.00,,2013-02-10 18:02:00,
2013-02-10 13:12:00,31.0,4.0,30.58,SW,219,0.0,0.0,31,0.00,,,0.00,,2013-02-10 18:12:00,
2013-02-10 13:22:00,31.0,4.0,30.58,SW,219,0.0,0.0,31,0.00,,,0.00,,2013-02-10 18:22:00,
2013-02-10 13:32:00,31.0,5.0,30.57,South,190,0.0,0.0,32,0.00,,,0.00,,2013-02-10 18:32:00,
2013-02-10 13:42:00,31.0,5.0,30.57,South,190,0.0,0.0,32,0.00,,,0.00,,2013-02-10 18:42:00,
2013-02-10 13:52:00,31.0,4.0,30.57,West,262,0.0,0.0,31,0.01,,,0.01,,2013-02-10 18:52:00,
2013-02-10 14:02:00,32.0,4.0,30.56,West,269,0.0,0.0,30,0.02,,,0.02,,2013-02-10 19:02:00,
2013-02-10 14:12:00,32.0,4.0,30.56,West,269,0.0,0.0,30,0.02,,,0.02,,2013-02-10 19:12:00,
2013-02-10 14:22:00,32.0,4.0,30.56,West,269,0.0,0.0,30,0.02,,,0.02,,2013-02-10 19:22:00,
2013-02-10 14:32:00,33.0,6.0,30.54,WSW,240,0.0,0.0,31,0.03,,,0.03,,2013-02-10 19:32:00,
2013-02-10 14:43:00,34.0,7.0,30.54,ESE,111,0.0,0.0,32,0.02,,,0.03,,2013-02-10 19:43:00,
2013-02-10 14:52:00,34.0,7.0,30.54,ESE,111,0.0,0.0,32,0.02,,,0.03,,2013-02-10 19:52:00,
2013-02-10 15:02:00,33.0,4.0,30.55,West,262,0.0,0.0,29,0.02,,,0.04,,2013-02-10 20:02:00,
2013-02-10 15:11:00,33.0,4.0,30.55,West,262,0.0,0.0,29,0.02,,,0.04,,2013-02-10 20:11:00,
2013-02-10 15:22:00,33.0,3.0,30.54,WSW,256,0.0,0.0,27,0.02,,,0.04,,2013-02-10 20:22:00,
2013-02-10 15:32:00,33.0,3.0,30.55,West,270,0.0,0.0,27,0.01,,,0.04,,2013-02-10 20:32:00,
2013-02-10 15:42:00,33.0,3.0,30.55,SW,232,0.0,0.0,28,0.01,,,0.04,,2013-02-10 20:42:00,
2013-02-10 15:52:00,33.0,3.0,30.55,SW,232,0.0,0.0,28,0.01,,,0.04,,2013-02-10 20:52:00,
2013-02-10 16:02:00,33.0,5.0,30.56,WSW,256,0.0,0.0,30,0.00,,,0.04,,2013-02-10 21:02:00,
2013-02-10 16:12:00,33.0,5.0,30.56,WSW,256,0.0,0.0,30,0.00,,,0.04,,2013-02-10 21:12:00,
2013-02-10 16:22:00,32.0,4.0,30.55,SSW,200,0.0,0.0,30,0.00,,,0.04,,2013-02-10 21:22:00,
2013-02-10 16:32:00,31.0,7.0,30.55,SSW,200,0.0,0.0,35,0.00,,,0.04,,2013-02-10 21:32:00,
2013-02-10 16:42:00,32.0,14.0,30.54,SSW,200,0.0,0.0,46,0.00,,,0.04,,2013-02-10 21:42:00,
2013-02-10 16:52:00,32.0,14.0,30.54,SSW,200,0.0,0.0,46,0.00,,,0.04,,2013-02-10 21:52:00,
2013-02-10 17:02:00,31.0,12.0,30.54,SSW,200,0.0,0.0,44,0.00,,,0.04,,2013-02-10 22:02:00,
2013-02-10 17:12:00,29.0,11.0,30.54,SSW,200,0.0,0.0,47,0.00,,,0.04,,2013-02-10 22:12:00,
2013-02-10 17:22:00,29.0,11.0,30.54,SSW,200,0.0,0.0,47,0.00,,,0.04,,2013-02-10 22:22:00,
2013-02-10 17:32:00,27.0,13.0,30.54,SSW,200,0.0,0.0,54,0.00,,,0.04,,2013-02-10 22:32:00,
2013-02-10 17:42:00,26.0,16.0,30.54,SSW,200,0.0,0.0,66,0.00,,,0.04,,2013-02-10 22:42:00,
2013-02-10 17:52:00,26.0,16.0,30.54,SSW,200,0.0,0.0,66,0.00,,,0.04,,2013-02-10 22:52:00,
2013-02-10 18:02:00,25.0,16.0,30.55,SSW,200,0.0,0.0,69,0.00,,,0.04,,2013-02-10 23:02:00,
2013-02-10 18:12:00,25.0,16.0,30.55,SSW,200,0.0,0.0,69,0.00,,,0.04,,2013-02-10 23:12:00,
2013-02-10 18:22:00,24.0,17.0,30.54,SSW,200,0.0,0.0,75,0.00,,,0.04,,2013-02-10 23:22:00,
2013-02-10 18:32:00,23.0,16.0,30.54,South,172,0.0,0.0,73,0.00,,,0.04,,2013-02-10 23:32:00,
2013-02-10 18:42:00,22.0,15.0,30.55,SE,138,0.0,0.0,74,0.00,,,0.04,,2013-02-10 23:42:00,
2013-02-10 18:52:00,22.0,15.0,30.55,SE,138,0.0,0.0,74,0.00,,,0.04,,2013-02-10 23:52:00,
2013-02-10 19:02:00,21.0,15.0,30.56,SE,138,0.0,0.0,78,0.00,,,0.04,,2013-02-11 00:02:00,
2013-02-10 19:11:00,20.0,14.0,30.56,SE,138,0.0,0.0,78,0.00,,,0.04,,2013-02-11 00:11:00,
2013-02-10 19:22:00,20.0,14.0,30.56,SE,138,0.0,0.0,78,0.00,,,0.04,,2013-02-11 00:22:00,
2013-02-10 19:32:00,19.0,13.0,30.56,SE,138,0.0,0.0,77,0.00,,,0.04,,2013-02-11 00:32:00,
2013-02-10 19:42:00,19.0,13.0,30.56,SE,138,0.0,0.0,77,0.00,,,0.04,,2013-02-11 00:42:00,
2013-02-10 19:51:00,18.0,12.0,30.55,SE,138,0.0,0.0,77,0.00,,,0.04,,2013-02-11 00:51:00,
2013-02-10 20:01:00,18.0,12.0,30.55,SE,138,0.0,0.0,77,0.00,,,0.04,,2013-02-11 01:01:00,
2013-02-10 20:11:00,18.0,12.0,30.55,SE,138,0.0,0.0,77,0.00,,,0.04,,2013-02-11 01:11:00,
2013-02-10 20:21:00,17.0,12.0,30.56,SE,138,0.0,0.0,81,0.00,,,0.04,,2013-02-11 01:21:00,
2013-02-10 20:32:00,16.0,11.0,30.55,SE,138,0.0,0.0,80,0.00,,,0.04,,2013-02-11 01:32:00,
2013-02-10 20:42:00,15.0,11.0,30.55,SE,138,0.0,0.0,82,0.00,,,0.04,,2013-02-11 01:42:00,
2013-02-10 20:52:00,15.0,11.0,30.55,SE,138,0.0,0.0,82,0.00,,,0.04,,2013-02-11 01:52:00,
2013-02-10 21:01:00,15.0,10.0,30.55,ENE,73,0.0,0.0,81,0.00,,,0.04,,2013-02-11 02:01:00,
2013-02-10 21:11:00,15.0,10.0,30.55,ENE,73,0.0,0.0,81,0.00,,,0.04,,2013-02-11 02:11:00,
2013-02-10 21:21:00,14.0,10.0,30.55,ENE,74,0.0,0.0,82,0.00,,,0.04,,2013-02-11 02:21:00,
2013-02-10 21:32:00,13.0,9.0,30.55,SE,132,0.0,0.0,82,0.00,,,0.04,,2013-02-11 02:32:00,
2013-02-10 21:42:00,13.0,9.0,30.54,SSE,150,0.0,0.0,83,0.00,,,0.04,,2013-02-11 02:42:00,
2013-02-10 21:52:00,13.0,9.0,30.54,SSE,150,0.0,0.0,83,0.00,,,0.04,,2013-02-11 02:52:00,
2013-02-10 22:02:00,12.0,8.0,30.54,SE,138,0.0,0.0,82,0.00,,,0.04,,2013-02-11 03:02:00,
2013-02-10 22:11:00,12.0,8.0,30.54,SE,138,0.0,0.0,82,0.00,,,0.04,,2013-02-11 03:11:00,
2013-02-10 22:21:00,12.0,8.0,30.55,SE,138,0.0,0.0,83,0.00,,,0.04,,2013-02-11 03:21:00,
2013-02-10 22:32:00,11.0,7.0,30.54,SE,138,0.0,0.0,83,0.00,,,0.04,,2013-02-11 03:32:00,
2013-02-10 22:42:00,11.0,7.0,30.54,SE,138,0.0,0.0,84,0.00,,,0.04,,2013-02-11 03:42:00,
2013-02-10 22:52:00,11.0,7.0,30.54,SE,138,0.0,0.0,84,0.00,,,0.04,,2013-02-11 03:52:00,
2013-02-10 23:02:00,10.0,6.0,30.54,SE,138,0.0,0.0,84,0.00,,,0.04,,2013-02-11 04:02:00,
2013-02-10 23:11:00,10.0,6.0,30.54,SE,138,0.0,0.0,84,0.00,,,0.04,,2013-02-11 04:11:00,
2013-02-10 23:22:00,10.0,6.0,30.54,SE,138,0.0,0.0,84,0.00,,,0.04,,2013-02-11 04:22:00,
2013-02-10 23:32:00,9.0,5.0,30.53,SE,139,0.0,0.0,85,0.00,,,0.04,,2013-02-11 04:32:00,
2013-02-10 23:42:00,9.0,5.0,30.53,SE,139,0.0,0.0,85,0.00,,,0.04,,2013-02-11 04:42:00,
2013-02-10 23:52:00,9.0,5.0,30.53,SE,138,0.0,0.0,85,0.00,,,0.04,,2013-02-11 04:52:00,